Overview Statistics Trail Chart Weather Telemetry Raw packets
 

This is the latest recevied weather packets stored in our database for station/object WA1NHP. If no packets are shown the sender has not sent any weather packets the latest 10 day(s).

<< 39 40 41 42 43 44 45 >>
Time Temp. Humidity Pressure Rain* Wind** Luminosity Snow
1788026644 21.67° C 56% 1023.9 hPa 0 mm - 875 W/m² -
1788026044 22.22° C 67% 1023.9 hPa 0 mm - 893 W/m² -
1788025444 22.22° C 62% 1023.9 hPa 0 mm - 888 W/m² -
1788024844 21.11° C 56% 1023.9 hPa 0 mm - 882 W/m² -
1788024244 21.11° C 60% 1023.9 hPa 0 mm - 889 W/m² -
1788023651 21.11° C 59% 1023.9 hPa 0 mm - 911 W/m² -
1788023044 21.11° C 56% 1023.9 hPa 0 mm - 916 W/m² -
1788022444 20.56° C 55% 1023.9 hPa 0 mm - 921 W/m² -
1788021844 20° C 60% 1023.9 hPa 0 mm - 921 W/m² -
1788021244 20° C 59% 1023.9 hPa 0 mm - 919 W/m² -
1788020644 20.56° C 59% 1023.9 hPa 0 mm - 923 W/m² -
1788020044 20° C 62% 1023.9 hPa 0 mm - 933 W/m² -
1788019444 20° C 60% 1023.9 hPa 0 mm - 940 W/m² -
1788018844 19.44° C 61% 1023.9 hPa 0 mm - 932 W/m² -
1788018244 19.44° C 62% 1023.9 hPa 0 mm - 923 W/m² -
1788017644 19.44° C 66% 1023.9 hPa 0 mm - 914 W/m² -
1788017054 18.89° C 67% 1023.9 hPa 0 mm - 896 W/m² -
1788016444 18.89° C 63% 1023.9 hPa 0 mm - 889 W/m² -
1788015843 18.89° C 66% 1023.9 hPa 0 mm - 870 W/m² -
1788015244 18.89° C 69% 1023.9 hPa 0 mm - 853 W/m² -
1788014644 17.78° C 67% 1023.9 hPa 0 mm - 833 W/m² -
1788014044 17.78° C 72% 1023.9 hPa 0 mm - 812 W/m² -
1788013444 17.22° C 71% 1023.9 hPa 0 mm - 786 W/m² -
1788012844 16.67° C 75% 1023.9 hPa 0 mm - 162 W/m² -
1788012243 16.67° C 75% 1023.9 hPa 0 mm - 90 W/m² -

* Rain latest hour (hover to see other rain measurements)
** Current wind speed in m/s (hover to see current wind gust speed)